Location: Jangalapalle
(16.8036°N, 80.6370°E)
Time: 11:54:27
(UTC+00:00)

Cosmos 1656 Rocket - Pass Details

Date: 05 August 2024
Orbit: 792 x 846 km, 71.1° (Epoch: 08 September)

Event Time Altitude Azimuth Distance (km) Brightness Sun altitude
Rises 13:45:43 0° 201° (SSW) 3,291 6.8 -9.4°
Reaches altitude 10° 13:48:07 10° 203° (SSW) 2,368 6.1 -9.9°
Maximum altitude 13:53:30 70° 287° (WNW) 856 4.0 -11.1°
Drops below altitude 10° 13:58:59 10° 11° (N) 2,406 6.2 -12.3°
Sets 14:01:26 0° 13° (NNE) 3,348 6.9 -12.9°
